West Palm Beach, FL

12:15 PM EDT on March 24, 2017 (GMT -0400)
Palm Beach International

Weather History for KPBI - October, 2014

Change the Weather History Date:

Saturday, October 4, 2014

  Actual Average Record
Temperature  
Mean Temperature 82 °F 80 °F  
Max Temperature 89 °F 87 °F 92 °F (1988)
Min Temperature 74 °F 74 °F 57 °F (1929)
Degree Days  
Heating Degree Days 0 0  
Month to date heating degree days 0 0  
Since 1 July heating degree days 0 0  
Cooling Degree Days 17 15  
Month to date cooling degree days 71 62  
Year to date cooling degree days 3591 3270  
Growing Degree Days 32 (Base 50)    
Moisture  
Dew Point 74 °F    
Average Humidity 80    
Maximum Humidity 100    
Minimum Humidity 59    
Precipitation  
Precipitation T in 0.20 in 2.88 in (1982)
Month to date precipitation 1.35 0.82  
Year to date precipitation 53.63 49.89  
Snow  
Snow 0.00 in - - ()
Month to date snowfall 0.0  
Since 1 July snowfall 0.0  
Since 1 September snowfall 0.0  
Snow Depth 0.00 in    
Sea Level Pressure  
Sea Level Pressure 29.88 in    
Wind  
Wind Speed 9 mph (West)    
Max Wind Speed 21 mph    
Max Gust Speed 26 mph    
Visibility 10 miles    
Events Thunderstorm    
T = Trace of Precipitation, MM = Missing Value Source: NWS Daily Summary

Daily Weather History Graph

Daily Weather History Graph

Search for Another Location

Airport or City:

Trip Planner

Search our weather history database for the weather conditions in past years. The results will help you decide how hot, cold, wet, or windy it might be!

Date:

Astronomy

Oct. 04, 2014 Rise Set
Actual Time 7:14 AM EDT 7:03 PM EDT
Civil Twilight 6:51 AM EDT 7:26 PM EDT
Nautical Twilight 6:24 AM EDT 7:53 PM EDT
Astronomical Twilight 5:57 AM EDT 8:20 PM EDT
Moon 4:19 PM EDT (10/4) 3:03 AM EDT (10/4)
Length of Visible Light 12h 35m
Length of Day
11h 49m
Waxing Gibbous, 81% of the Moon is Illuminated
Oct 4
Waxing Gibbous
Oct 8
Full
Oct 15
Last Quarter
Oct 23
New
Oct 30
First Quarter

Hourly Weather History & Observations

Time (EDT) Temp. Heat Index Dew Point Humidity Pressure Visibility Wind Dir Wind Speed Gust Speed Precip Events Conditions
12:53 AM 75.9 °F - 73.9 °F 94% 29.95 in 10.0 mi SSW 4.6 mph - 0.00 in   Mostly Cloudy
1:53 AM 75.9 °F - 73.9 °F 94% 29.94 in 10.0 mi South 5.8 mph - N/A   Partly Cloudy
2:53 AM 75.9 °F - 73.9 °F 94% 29.92 in 10.0 mi Calm Calm - N/A   Scattered Clouds
3:53 AM 75.0 °F - 73.9 °F 96% 29.90 in 10.0 mi SSW 4.6 mph - N/A   Partly Cloudy
4:53 AM 75.9 °F - 75.0 °F 97% 29.90 in 10.0 mi WSW 3.5 mph - N/A   Clear
5:53 AM 75.9 °F - 75.0 °F 97% 29.91 in 10.0 mi Calm Calm - N/A   Clear
6:53 AM 75.9 °F - 75.9 °F 100% 29.91 in 10.0 mi Calm Calm - N/A   Mostly Cloudy
7:53 AM 77.0 °F - 75.9 °F 96% 29.91 in 10.0 mi SW 4.6 mph - 0.00 in   Mostly Cloudy
8:53 AM 80.1 °F 85.8 °F 77.0 °F 90% 29.91 in 10.0 mi SW 10.4 mph - N/A   Mostly Cloudy
9:53 AM 82.9 °F 91.8 °F 77.0 °F 82% 29.90 in 10.0 mi West 11.5 mph - N/A   Mostly Cloudy
10:05 AM 84.0 °F 93.7 °F 77.0 °F 79% 29.90 in 10.0 mi West 11.5 mph - N/A   Mostly Cloudy
10:53 AM 84.9 °F 93.3 °F 75.0 °F 72% 29.89 in 10.0 mi West 13.8 mph - N/A   Mostly Cloudy
11:05 AM 84.9 °F 92.1 °F 73.9 °F 69% 29.89 in 10.0 mi WSW 11.5 mph - N/A   Mostly Cloudy
11:53 AM 87.1 °F 95.4 °F 73.9 °F 65% 29.89 in 10.0 mi West 15.0 mph - N/A   Mostly Cloudy
12:53 PM 88.0 °F 94.7 °F 72.0 °F 59% 29.87 in 10.0 mi West 15.0 mph 23.0 mph N/A   Mostly Cloudy
1:53 PM 87.1 °F 93.6 °F 72.0 °F 61% 29.86 in 10.0 mi WNW 12.7 mph - N/A   Mostly Cloudy
2:53 PM 84.9 °F 90.7 °F 72.0 °F 65% 29.83 in 10.0 mi WNW 13.8 mph - N/A   Mostly Cloudy
3:03 PM 84.9 °F 91.4 °F 73.0 °F 67% 29.83 in 10.0 mi WNW 9.2 mph - N/A Thunderstorm Thunderstorm
3:37 PM 84.9 °F 91.4 °F 73.0 °F 67% 29.83 in 10.0 mi West 11.5 mph - N/A   Mostly Cloudy
3:53 PM 84.9 °F 91.4 °F 73.0 °F 67% 29.83 in 10.0 mi West 11.5 mph - N/A   Mostly Cloudy
4:53 PM 86.0 °F 93.0 °F 73.0 °F 65% 29.81 in 10.0 mi WNW 12.7 mph - N/A   Mostly Cloudy
5:53 PM 84.0 °F 90.2 °F 73.0 °F 69% 29.82 in 10.0 mi West 8.1 mph - N/A   Mostly Cloudy
6:53 PM 82.9 °F 88.8 °F 73.0 °F 72% 29.83 in 10.0 mi West 8.1 mph - N/A   Mostly Cloudy
7:53 PM 82.0 °F 87.4 °F 73.0 °F 74% 29.84 in 10.0 mi West 16.1 mph - N/A   Mostly Cloudy
8:53 PM 80.1 °F 84.2 °F 73.0 °F 79% 29.86 in 10.0 mi NW 9.2 mph - N/A   Mostly Cloudy
9:53 PM 79.0 °F - 73.0 °F 82% 29.88 in 10.0 mi NW 9.2 mph - N/A   Mostly Cloudy
10:53 PM 78.1 °F - 71.1 °F 79% 29.90 in 10.0 mi NW 10.4 mph - N/A   Mostly Cloudy
11:53 PM 77.0 °F - 68.0 °F 74% 29.90 in 10.0 mi WNW 11.5 mph - N/A   Mostly Cloudy